Location: Bron Breck
(40.6655°N, 111.8083°W)
Time: 00:58:08
(UTC+00:00)

Envisat - Pass Details

Date: 08 March 2021
Orbit: 764 x 766 km, 98.1° (Epoch: 11 April)

Event Time Altitude Azimuth Distance (km) Brightness Sun altitude
Rises 11:55:40 0° 30° (NNE) 3,239 6.9 -22.3°
Reaches altitude 10° 11:58:45 10° 50° (NE) 2,307 6.4 -21.7°
Maximum altitude 12:02:07 18° 92° (E) 1,826 5.9 -21.1°
Drops below altitude 10° 12:05:28 10° 133° (SE) 2,295 5.9 -20.5°
Sets 12:08:31 0° 153° (SSE) 3,215 6.4 -19.9°
